Date String (YYYY-MM-DD hh:mm:ss) UTC,Instrument flags,Ambient pressure (hPa),Sample flow (lpm),Bypass flow (lpm),Sample temperature (°C),Ambient temperature (°C),ASC tube jacket temperature (°C),LED temperature (°C),Box temperature (°C),Sample RH (%),Span deviation,Mass concentration (μg/m³),Mass concentration (μg/m³),Mass concentration (μg/m³)
DateTimeUTC,F1_M11,P_M11,Q1_M11,Q2_M11,T1_M11,T2_M11,T3_M11,T4_M11,T5_M11,U1_M11,ZSPAN_M11,X2_M11,X0_M11,X1_M11
2023-02-20 18:00:00,,0817.0,5.00,0.00,21.9,20.3,00.0,30.8,23.6,11.3,0000.0,0001.60,0008.02,0000.75
2023-02-20 18:01:00,,0817.0,5.01,0.00,21.9,20.3,00.0,30.8,23.6,11.4,0000.0,0001.63,0007.84,0000.75
2023-02-20 18:02:00,,0817.0,5.00,0.00,21.9,20.3,00.0,30.8,23.6,11.4,0000.0,0001.66,0008.20,0000.74
2023-02-20 18:03:00,,0817.0,5.00,0.00,21.9,20.3,00.0,30.8,23.5,11.3,0000.0,0001.65,0008.92,0000.73
2023-02-20 18:04:00,,0817.0,4.94,0.00,21.9,20.3,00.0,30.8,23.6,11.3,0000.0,0001.63,0008.92,0000.72
2023-02-20 18:05:00,,0817.0,4.99,0.00,21.9,20.3,00.0,30.8,23.6,11.4,0000.0,0001.66,0008.64,0000.72
2023-02-20 18:06:00,,0817.1,4.99,0.00,21.9,20.3,00.0,30.8,23.6,11.6,0000.0,0001.74,0008.41,0000.73
2023-02-20 18:07:00,,0817.2,5.00,0.00,21.9,20.3,00.0,30.8,23.5,11.7,0000.0,0001.77,0008.52,0000.74
2023-02-20 18:08:00,,0816.9,5.00,0.00,21.8,20.3,00.0,30.8,23.5,11.6,0000.0,0001.72,0008.04,0000.72
2023-02-20 18:09:00,,0816.6,5.00,0.00,21.8,20.2,00.0,30.8,23.5,11.7,0000.0,0001.70,0007.82,0000.71
2023-02-20 18:10:00,,0816.6,5.01,0.00,21.8,20.2,00.0,30.8,23.5,11.8,0000.0,0001.70,0007.60,0000.70
2023-02-20 18:11:00,,0817.1,5.01,0.00,21.8,20.2,00.0,30.7,23.5,11.7,0000.0,0001.76,0007.66,0000.70
2023-02-20 18:12:00,,0817.1,5.02,0.00,21.9,21.2,00.0,30.7,23.7,11.6,0000.0,0001.68,0007.11,0000.69
2023-02-20 18:13:00,,0817.1,4.95,0.00,22.0,22.5,00.0,30.7,24.0,11.5,0000.0,0001.58,0006.68,0000.68
2023-02-20 18:14:00,,0817.1,5.01,0.00,22.1,22.6,00.0,30.7,24.1,11.5,0000.0,0001.52,0005.35,0000.67
2023-02-20 18:15:00,,0817.0,5.02,0.00,22.1,22.1,00.0,30.8,24.1,11.6,0000.0,0001.54,0005.29,0000.67
2023-02-20 18:16:00,,0816.6,5.01,0.00,22.1,21.7,00.0,30.8,24.0,11.7,0000.0,0001.54,0005.37,0000.65
2023-02-20 18:17:00,,0816.4,5.01,0.00,22.1,21.4,00.0,30.9,23.9,11.8,0000.0,0001.44,0004.98,0000.64
2023-02-20 18:18:00,,0816.6,4.97,0.00,22.1,21.2,00.0,30.9,23.9,12.1,0000.0,0001.40,0004.42,0000.64
2023-02-20 18:19:00,,0816.8,5.00,0.00,22.1,21.0,00.0,30.9,23.8,11.9,0000.0,0001.40,0004.22,0000.64
2023-02-20 18:20:00,,0816.9,4.99,0.00,22.1,21.0,00.0,30.9,23.8,12.0,0000.0,0001.39,0004.18,0000.63
2023-02-20 18:21:00,,0816.8,5.01,0.00,22.1,20.8,00.0,30.9,23.8,11.8,0000.0,0001.36,0004.37,0000.62
2023-02-20 18:22:00,,0816.7,5.00,0.00,22.0,20.6,00.0,30.9,23.7,11.9,0000.0,0001.30,0004.41,0000.61
2023-02-20 18:23:00,,0816.8,5.00,0.00,22.0,20.5,00.0,30.9,23.7,11.9,0000.0,0001.27,0004.35,0000.60
2023-02-20 18:24:00,,0816.8,5.00,0.00,22.0,20.4,00.0,30.9,23.7,12.0,0000.0,0001.26,0004.18,0000.60
2023-02-20 18:25:00,,0816.7,4.98,0.00,22.0,20.4,00.0,30.9,23.7,12.0,0000.0,0001.23,0003.64,0000.61
2023-02-20 18:26:00,,0816.9,5.00,0.00,22.0,20.4,00.0,30.9,23.7,12.0,0000.0,0001.16,0003.03,0000.60
2023-02-20 18:27:00,,0816.6,5.01,0.00,22.0,20.3,00.0,30.9,23.7,11.9,0000.0,0001.11,0002.91,0000.59
2023-02-20 18:28:00,,0816.3,5.00,0.00,22.0,20.3,00.0,30.9,23.6,11.8,0000.0,0001.07,0003.62,0000.58
2023-02-20 18:29:00,,0816.6,5.00,0.00,21.9,20.3,00.0,30.9,23.6,11.7,0000.0,0001.01,0004.12,0000.57
2023-02-20 18:30:00,,0816.8,4.99,0.00,21.9,20.3,00.0,30.9,23.6,11.7,0000.0,0001.00,0004.23,0000.56
2023-02-20 18:31:00,,0816.7,4.99,0.00,21.9,20.2,00.0,30.9,23.5,11.8,0000.0,0001.01,0004.33,0000.56
2023-02-20 18:32:00,,0816.7,5.00,0.00,21.9,20.1,00.0,30.8,23.5,12.0,0000.0,0001.00,0004.16,0000.56
2023-02-20 18:33:00,,0816.9,5.01,0.00,21.8,20.1,00.0,30.8,23.4,12.2,0000.0,0000.96,0003.74,0000.56
2023-02-20 18:34:00,,0816.7,5.02,0.00,21.8,20.0,00.0,30.8,23.4,12.2,0000.0,0000.91,0003.51,0000.55
2023-02-20 18:35:00,,0816.7,5.03,0.00,21.8,19.9,00.0,30.8,23.3,12.2,0000.0,0000.88,0003.49,0000.54
2023-02-20 18:36:00,,0816.8,5.01,0.00,21.7,19.9,00.0,30.8,23.3,12.3,0000.0,0000.92,0003.64,0000.54
2023-02-20 18:37:00,,0817.0,5.00,0.00,21.7,19.9,00.0,30.8,23.3,12.3,0000.0,0000.92,0003.60,0000.53
2023-02-20 18:38:00,,0817.0,5.01,0.00,21.7,19.8,00.0,30.7,23.3,12.3,0000.0,0000.92,0003.51,0000.52
2023-02-20 18:39:00,,0817.2,5.01,0.00,21.7,19.8,00.0,30.7,23.3,12.5,0000.0,0000.91,0002.93,0000.52
2023-02-20 18:40:00,,0816.9,4.99,0.00,21.6,19.8,00.0,30.7,23.3,12.5,0000.0,0000.93,0002.15,0000.51
2023-02-20 18:41:00,,0817.0,5.01,0.00,21.6,19.9,00.0,30.7,23.3,12.5,0000.0,0000.91,0002.07,0000.50
2023-02-20 18:42:00,,0816.9,4.98,0.00,21.7,21.0,00.0,30.6,23.5,12.6,0000.0,0000.90,0002.13,0000.50
2023-02-20 18:43:00,,0817.2,5.00,0.00,21.8,22.3,00.0,30.6,23.8,12.7,0000.0,0000.91,0002.61,0000.50
2023-02-20 18:44:00,,0817.1,4.96,0.00,21.9,22.2,00.0,30.6,23.9,12.7,0000.0,0000.93,0002.74,0000.50
2023-02-20 18:45:00,,0817.0,5.01,0.00,22.0,21.8,00.0,30.7,23.8,12.4,0000.0,0000.95,0002.77,0000.51
2023-02-20 18:46:00,,0817.4,4.99,0.00,22.0,21.4,00.0,30.7,23.8,12.7,0000.0,0000.98,0002.84,0000.50
2023-02-20 18:47:00,,0817.6,5.00,0.00,22.0,21.2,00.0,30.8,23.7,12.7,0000.0,0000.99,0002.81,0000.50
2023-02-20 18:48:00,,0817.5,5.01,0.00,22.0,21.0,00.0,30.8,23.7,12.6,0000.0,0001.04,0003.03,0000.51
2023-02-20 18:49:00,,0817.5,5.01,0.00,21.9,20.8,00.0,30.8,23.7,12.3,0000.0,0001.03,0003.00,0000.51
2023-02-20 18:50:00,,0817.5,5.00,0.00,21.9,20.6,00.0,30.8,23.6,12.1,0000.0,0001.08,0003.04,0000.52
2023-02-20 18:51:00,,0817.5,5.00,0.00,21.9,20.5,00.0,30.8,23.5,12.2,0000.0,0001.07,0002.98,0000.53
2023-02-20 18:52:00,,0817.4,5.00,0.00,21.9,20.4,00.0,30.8,23.5,12.3,0000.0,0001.09,0002.98,0000.53
2023-02-20 18:53:00,,0817.5,4.99,0.00,21.9,20.4,00.0,30.8,23.5,12.4,0000.0,0001.08,0002.84,0000.52
2023-02-20 18:54:00,,0817.4,5.00,0.00,21.9,20.3,00.0,30.8,23.5,12.7,0000.0,0001.08,0002.51,0000.52
2023-02-20 18:55:00,,0817.5,5.00,0.00,21.9,20.3,00.0,30.8,23.6,12.6,0000.0,0001.04,0003.01,0000.51
2023-02-20 18:56:00,,0817.4,5.01,0.00,21.9,20.3,00.0,30.8,23.6,13.0,0000.0,0001.10,0004.24,0000.52
2023-02-20 18:57:00,,0817.2,5.00,0.00,21.9,20.4,00.0,30.8,23.6,13.0,0000.0,0001.17,0004.92,0000.54
2023-02-20 18:58:00,,0817.4,5.00,0.00,21.9,20.4,00.0,30.8,23.6,12.9,0000.0,0001.17,0004.93,0000.54
2023-02-20 18:59:00,,0817.3,5.00,0.00,21.9,20.4,00.0,30.8,23.6,13.0,0000.0,0001.12,0005.32,0000.54
